Starlink 4503

operational
NORAD ID: 53528 Int'l Des: 2022-101 Owner: SPXS Country: US Constellation: starlink
LEOCIRCULAR

Über Starlink 4503

Beschreibung wird geladen...

Live-Position

3D-Globus wird geladen...

Nächste Überflüge

Höhenverlauf

Altitude vs Time

uPlot chart will show altitude changes over time

Zweizeiliger Elementsatz

1 53528U 22101B 25304.28021916 .00014008 00000-0 89767-3 0 9995
2 53528 53.2181 295.0631 0001780 102.4405 257.6787 15.08790839176627
Epoch: 31. Okt. 2025 • Age: 8 hours

Aktueller Status

Höhe 546.4 km
Geschwindigkeit 7.59 km/s
Subsatellitenpunkt -20.49°S, 18.91°E
Startdatum 19. Aug. 2022
Alter 3.1 years
Typ internet

Technische Details

Klassifizierung Payload
Masse 300.00 kg
Trockenmasse 290.00 kg
Gesamtmasse 300.00 kg
Länge 0.20 m
Durchmesser 2.80 m
Spannweite 9.00 m
Form Box + pan
Hersteller SPXS
Bus-Typ Starlink
Phasenstatus In Orbit
Besitzer/Staat SPXS/US

Große Konstellationen

Loading constellations...